Regional Weather Roundup
Issued by NWS Goodland, KS

Home | Current Version | Previous Version | Text Only | Print | Product List | Glossary Off
Versions: 1 2 3 4 5 6 7 8 9 10 11 12 13 14 15 16 17 18 19 20 21 22 23 24 25 26 27 28 29 30 31 32 33 34 35 36 37 38 39 40 41 42 43 44 45 46 47 48 49 50

000
ASUS43 KGLD 172359
RWRGLD

GOODLAND FORECAST AREA HOURLY WEATHER ROUNDUP
NATIONAL WEATHER SERVICE GOODLAND KS
600 PM MDT FRI APR 17 2015

...OFFICIAL OBSERVATIONS...

CITY           SKY/WX    TMP DP  RH WIND       PRES   REMARKS
GOODLAND KS    LGT RAIN  57  43  59 E10       29.91S
HILL CITY KS   MOSUNNY   69  50  50 SE10      29.92F
IMPERIAL NEB     N/A     61  51  70 E7        29.94S
MCCOOK NEB     MOSUNNY   69  51  52 E13       29.93F
AKRON CO       CLOUDY    52  50  93 E5        29.94R
BURLINGTON CO  MOSUNNY   62  47  57 SE16      29.91S
LIMON CO       PTSUNNY   51  27  39 E26       29.95R
$$

...UNOFFICIAL OBSERVATIONS...

CITY           SKY/WX    TMP DP  RH WIND       PRES   REMARKS
COLBY KS       MOSUNNY   63  54  72 E12       29.93S
GOVE KS          N/A     70  32  24 MISG        N/A
LENORA KS        N/A     68  32  26 MISG        N/A
NORTON KS      MOSUNNY   68  48  49 E13       29.93F
SHARON SPRINGS   N/A     60  52  75 MISG        N/A
TRIBUNE KS     MOSUNNY   66  48  52 SE18      29.89F
KIT CARSON CO    N/A     63  37  37 MISG        N/A
YUMA CO          N/A     57  45  65 SE10        N/A
$$


USA.gov is the U.S. government's official web portal to all federal, state and local government web resources and services.